Morgantown, WV

5:25 AM EDT on April 25, 2018 (GMT -0400)
Morgantown Municipal-Hart

Weather History for KMGW - February, 2009

Change the Weather History Date:

Monday, February 9, 2009

  Actual Average Record
Temperature  
Mean Temperature 40 °F 33 °F  
Max Temperature 58 °F 42 °F 73 °F (1937)
Min Temperature 21 °F 25 °F -10 °F (1934)
Degree Days  
Heating Degree Days 25 32  
Month to date heating degree days 326 292  
Since 1 July heating degree days 3480 3319  
Cooling Degree Days 0 0  
Month to date cooling degree days 0 0  
Year to date cooling degree days 0 0  
Moisture  
Dew Point 27 °F    
Average Humidity 69    
Maximum Humidity 100    
Minimum Humidity 38    
Precipitation  
Precipitation 0.00 in 0.09 in 1.25 in (1957)
Month to date precipitation 0.30 0.81  
Year to date precipitation 3.12 3.62  
Snow  
Snow 0.00 in - - ()
Month to date snowfall 0.0  
Snow Depth 0.00 in    
Sea Level Pressure  
Sea Level Pressure 30.34 in    
Wind  
Wind Speed 1 mph (SSE)    
Max Wind Speed 10 mph    
Max Gust Speed 13 mph    
Visibility 4 miles    
Events Fog    
T = Trace of Precipitation, MM = Missing Value Source: NWS Daily Summary

Daily Weather History Graph

Daily Weather History Graph

Search for Another Location

Airport or City:

Astronomy

Feb. 09, 2009 Rise Set
Actual Time 7:18 AM EST 5:49 PM EST
Civil Twilight 6:51 AM EST 6:17 PM EST
Nautical Twilight 6:19 AM EST 6:49 PM EST
Astronomical Twilight 5:47 AM EST 7:20 PM EST
Moon 6:13 PM EST (2/9) 7:13 AM EST (2/9)
Length of Visible Light 11h 26m
Length of Day
10h 30m
Full, 100% of the Moon is Illuminated
Feb 9
Full
Feb 16
Last Quarter
Feb 24
New
Mar 4
First Quarter
Mar 10
Full

Hourly Weather History & Observations

Time (EST) Temp. Windchill Dew Point Humidity Pressure Visibility Wind Dir Wind Speed Gust Speed Precip Events Conditions
12:53 AM 30.9 °F - 28.0 °F 89% 30.36 in 3.0 mi Calm Calm - N/A   Clear
1:53 AM 30.0 °F - 28.0 °F 92% 30.36 in 3.0 mi Calm Calm - N/A   Clear
2:06 AM 30.2 °F - 28.4 °F 93% 30.34 in 2.5 mi Calm Calm - N/A   Clear
2:53 AM 28.0 °F - 26.1 °F 92% 30.37 in 2.0 mi Calm Calm - N/A   Clear
3:00 AM 28.4 °F - 26.6 °F 93% 30.34 in 1.2 mi Calm Calm - N/A   Clear
3:15 AM 26.6 °F - 26.6 °F 100% 30.34 in 0.5 mi Calm Calm - N/A Fog Light Freezing Fog
3:34 AM 26.6 °F - 24.8 °F 93% 30.35 in 1.5 mi Calm Calm - N/A   Clear
3:53 AM 28.0 °F - 26.1 °F 92% 30.38 in 1.2 mi Calm Calm - N/A   Clear
4:19 AM 24.8 °F - 24.8 °F 100% 30.35 in 2.0 mi Calm Calm - N/A   Clear
4:47 AM 24.8 °F - 23.0 °F 93% 30.35 in 0.8 mi Calm Calm - N/A   Mist
4:53 AM 24.1 °F - 23.0 °F 96% 30.38 in 0.2 mi Calm Calm - N/A Fog Light Freezing Fog
5:26 AM 24.8 °F - 23.0 °F 93% 30.35 in 0.5 mi Calm Calm - N/A Fog Light Freezing Fog
5:34 AM 24.8 °F - 23.0 °F 93% 30.35 in 0.2 mi Calm Calm - N/A Fog Light Freezing Fog
5:53 AM 24.1 °F - 24.1 °F 100% 30.38 in 0.2 mi Calm Calm - N/A Fog Light Freezing Fog
6:53 AM 21.9 °F - 21.9 °F 100% 30.41 in 0.2 mi Calm Calm - N/A Fog Light Freezing Fog
7:34 AM 21.2 °F - 21.2 °F 100% 30.38 in 0.2 mi Calm Calm - N/A Fog Light Freezing Fog
7:41 AM 21.2 °F - 21.2 °F 100% 30.38 in 0.5 mi Calm Calm - N/A Fog Light Freezing Fog
7:44 AM 21.2 °F - 21.2 °F 100% 30.38 in 1.0 mi Calm Calm - N/A   Scattered Clouds
7:53 AM 24.1 °F - 23.0 °F 96% 30.43 in 2.5 mi Calm Calm - N/A   Partly Cloudy
8:08 AM 24.8 °F - 23.0 °F 93% 30.39 in 1.2 mi Calm Calm - N/A   Clear
8:31 AM 24.8 °F - 24.8 °F 100% 30.40 in 0.2 mi Calm Calm - N/A Fog Light Freezing Fog
8:39 AM 24.8 °F - 24.8 °F 100% 30.40 in 0.5 mi Calm Calm - N/A Fog Light Freezing Fog
8:50 AM 26.6 °F - 26.6 °F 100% 30.40 in 1.2 mi Calm Calm - N/A   Partly Cloudy
8:51 AM 26.1 °F - 26.1 °F 100% 30.44 in 1.2 mi Calm Calm - N/A   Partly Cloudy
9:03 AM 26.6 °F - 26.6 °F 100% 30.39 in 2.0 mi Calm Calm - N/A   Clear
9:15 AM 28.4 °F - 26.6 °F 93% 30.39 in 1.8 mi Calm Calm - N/A   Clear
9:28 AM 28.4 °F - 28.4 °F 100% 30.39 in 2.0 mi Calm Calm - N/A   Clear
9:53 AM 30.9 °F - 30.9 °F 100% 30.42 in 2.5 mi Calm Calm - N/A   Clear
10:25 AM 35.6 °F - 33.8 °F 93% 30.37 in 3.0 mi Calm Calm - N/A   Clear
10:53 AM 37.0 °F - 33.1 °F 86% 30.41 in 4.0 mi Calm Calm - N/A   Clear
11:53 AM 44.1 °F - 35.1 °F 71% 30.38 in 6.0 mi Calm Calm - N/A   Haze
12:53 PM 48.9 °F - 34.0 °F 56% 30.35 in - Variable 3.5 mph - N/A   Clear
1:53 PM 52.0 °F - 30.9 °F 45% 30.32 in 10.0 mi WSW 5.8 mph - N/A   Mostly Cloudy
2:53 PM 55.0 °F - 30.9 °F 40% 30.29 in 10.0 mi Calm Calm - N/A   Clear
3:53 PM 54.0 °F - 30.9 °F 41% 30.30 in 10.0 mi Variable 5.8 mph - N/A   Mostly Cloudy
4:53 PM 53.1 °F - 30.9 °F 43% 30.29 in 10.0 mi Calm Calm - N/A   Clear
5:53 PM 51.1 °F - 30.9 °F 46% 30.28 in 10.0 mi Calm Calm - N/A   Overcast
6:53 PM 48.9 °F - 30.9 °F 50% 30.25 in 10.0 mi ENE 3.5 mph - N/A   Clear
7:53 PM 46.9 °F - 32.0 °F 56% 30.23 in 10.0 mi Calm Calm - N/A   Clear
8:53 PM 45.0 °F - 32.0 °F 60% 30.21 in 10.0 mi Calm Calm - N/A   Clear
9:53 PM 43.0 °F 41.3 °F 30.9 °F 62% 30.21 in 10.0 mi SSE 3.5 mph - N/A   Clear
10:53 PM 46.0 °F 41.9 °F 28.9 °F 51% 30.17 in 10.0 mi SSE 8.1 mph - N/A   Clear
11:53 PM 46.0 °F 43.1 °F 28.9 °F 51% 30.16 in 10.0 mi SSE 5.8 mph - N/A   Clear